Flag for Canada

Past Weather in Whitehorse, Yukon, Canada — Yesterday and Last 2 Weeks

Now
41 °F

Passing clouds.


Feels Like: 35 °F
Forecast: 53 / 40 °F
Wind: 10 mph from South

Location: Whitehorse
Current Time: Sep 22, 2020 at 4:57:04 am
Latest Report: Sep 22, 2020 at 4:00 am
Visibility: 15 mi
Pressure29.76 "Hg(27.51 "Hg at 640m altitude)
Humidity: 81%
Dew Point: 36 °F
Location of WhitehorseLocation

Past Weather in Whitehorse — Graph

°F

Whitehorse Temperature Yesterday

Maximum temperature yesterday: 55 °F (at 5:00 pm)
Minimum temperature yesterday: 37 °F (at 7:00 am)
Average temperature yesterday: 46 °F

High & Low Weather Summary for the Past Weeks

 TemperatureHumidityPressure
High63 °F (Sep 7, 6:00 pm)100% (Sep 9, 3:00 am)30.45 "Hg (Sep 9, 3:00 am)
Low27 °F (Sep 14, 6:00 am)26% (Sep 14, 5:00 pm)29.70 "Hg (Sep 18, 7:00 pm)
Average47 °F65%30.10 "Hg
* Reported Sep 7 3:00 am — Sep 22 3:00 am, Whitehorse. Weather by CustomWeather, © 2020

Note: Actual official high and low records may vary slightly from our data, if they occured in-between our weather recording intervals... More about our weather records

Whitehorse Weather History for the Previous 24 Hours

Scroll right to see more
 ConditionsComfort  
Time TempWeatherWind HumidityBarometerVisibility
3:00 am
Tue, Sep 22
45 °FPassing clouds.18 mph71%29.75 "Hg15 mi
2:00 am45 °FPassing clouds.17 mph71%29.75 "Hg15 mi
1:00 am46 °FPassing clouds.7 mph66%29.76 "Hg15 mi
12:00 am45 °FPassing clouds.8 mph66%29.76 "Hg15 mi
11:00 pm
Mon, Sep 21
46 °FPartly cloudy.14 mph62%29.75 "Hg15 mi
10:00 pm48 °FPartly cloudy.16 mph58%29.75 "Hg15 mi
9:00 pm48 °FPartly cloudy.16 mph58%29.75 "Hg15 mi
8:00 pm48 °FOvercast.14 mph58%29.75 "Hg40 mi
7:00 pm50 °FBroken clouds.10 mph54%29.74 "Hg40 mi
6:00 pm52 °FBroken clouds.14 mph47%29.73 "Hg40 mi
5:00 pm55 °FBroken clouds.16 mph41%29.72 "Hg40 mi
4:00 pm54 °FBroken clouds.21 mph44%29.72 "Hg40 mi
3:00 pm54 °FPartly sunny.17 mph44%29.73 "Hg40 mi
2:00 pm54 °FBroken clouds.15 mph44%29.73 "Hg40 mi
1:00 pm50 °FBroken clouds.9 mph54%29.75 "Hg40 mi
12:00 pm46 °FBroken clouds.15 mph66%29.77 "Hg40 mi
11:00 am46 °FPartly sunny.18 mph62%29.77 "Hg40 mi
10:00 am45 °FPartly sunny.13 mph66%29.77 "Hg40 mi
9:00 am41 °FPartly sunny.15 mph76%29.78 "Hg40 mi
8:00 am39 °FScattered clouds.14 mph75%29.77 "Hg40 mi
7:00 am37 °FPassing clouds.13 mph81%29.77 "Hg15 mi
6:00 am39 °FPartly cloudy.14 mph75%29.76 "Hg15 mi
5:00 am39 °FPassing clouds.10 mph75%29.76 "Hg20 mi
4:00 am41 °FPassing clouds.12 mph70%29.76 "Hg15 mi
Weather by CustomWeather, © 2020

See weather overview